• In Romania
  • List of Countries
  • For 7 days
  • Water Temperature
  • Satellite Maps
  • Weather Map
  • Weather Widgets
  • user-avatar
    Login

    Hourly Weather Split

    Today, 17 December, Sunday

    Time Temperature Precipitation Wind Pressure Humidity
    00:00 +7°C° 1 mm 4 mps 755 mmHg 79%
    01:00 +7°C° 1 mm 5 mps 755 mmHg 78%
    02:00 +7°C° 0.4 mm 5 mps 756 mmHg 77%
    03:00 +6°C° 0.4 mm 5 mps 756 mmHg 77%
    04:00 +6°C° 0.4 mm 5 mps 756 mmHg 76%
    05:00 +5°C° 0.3 mm 6 mps 756 mmHg 75%
    06:00 +4°C° 0.3 mm 6 mps 757 mmHg 74%
    07:00 +4°C° 0.3 mm 7 mps 757 mmHg 73%
    08:00 +4°C° 0.3 mm 7 mps 758 mmHg 72%
    09:00 +4°C° 0.3 mm 8 mps 758 mmHg 71%
    10:00 +5°C° 0.3 mm 8 mps 759 mmHg 70%
    11:00 +5°C° 0.2 mm 8 mps 759 mmHg 70%
    12:00 +5°C° 0.2 mm 8 mps 759 mmHg 70%
    13:00 +5°C° 0.2 mm 8 mps 760 mmHg 69%
    14:00 +4°C° 0.1 mm 7 mps 760 mmHg 69%
    15:00 +4°C° 0.1 mm 7 mps 761 mmHg 69%
    16:00 +4°C° 0.1 mm 7 mps 761 mmHg 69%
    17:00 +3°C° 0 mm 7 mps 761 mmHg 70%
    18:00 +3°C° 0 mm 7 mps 762 mmHg 70%
    19:00 +3°C° 0 mm 7 mps 762 mmHg 71%
    20:00 +3°C° 0 mm 7 mps 763 mmHg 71%
    21:00 +2°C° 0 mm 6 mps 763 mmHg 71%
    22:00 +2°C° 0 mm 6 mps 764 mmHg 70%
    23:00 +2°C° 0 mm 6 mps 764 mmHg 70%

    Tomorrow, 18 December, Monday

    Time Temperature Precipitation Wind Pressure Humidity
    00:00 +2°C° 0 mm 6 mps 764 mmHg 70%
    01:00 +2°C° 0 mm 7 mps 764 mmHg 69%
    02:00 +2°C° 0 mm 7 mps 764 mmHg 70%
    03:00 +2°C° 0 mm 7 mps 764 mmHg 70%
    04:00 +2°C° 0 mm 7 mps 765 mmHg 70%
    05:00 +2°C° 0 mm 7 mps 765 mmHg 70%
    06:00 +2°C° 0 mm 7 mps 765 mmHg 70%
    07:00 +2°C° 0 mm 7 mps 766 mmHg 70%
    08:00 +2°C° 0 mm 7 mps 766 mmHg 67%
    09:00 +3°C° 0 mm 7 mps 766 mmHg 64%
    10:00 +3°C° 0 mm 7 mps 766 mmHg 62%
    11:00 +4°C° 0 mm 7 mps 766 mmHg 60%
    12:00 +4°C° 0 mm 6 mps 766 mmHg 58%
    13:00 +4°C° 0 mm 6 mps 765 mmHg 56%
    14:00 +3°C° 0 mm 6 mps 766 mmHg 58%
    15:00 +3°C° 0 mm 5 mps 766 mmHg 60%
    16:00 +2°C° 0 mm 5 mps 766 mmHg 63%
    17:00 +1°C° 0 mm 4 mps 766 mmHg 65%
    18:00 +1°C° 0 mm 4 mps 767 mmHg 66%
    19:00 0°C° 0 mm 4 mps 767 mmHg 68%
    20:00 0°C° 0 mm 4 mps 767 mmHg 68%
    21:00 0°C° 0 mm 4 mps 768 mmHg 68%
    22:00 0°C° 0 mm 4 mps 768 mmHg 68%
    23:00 0°C° 0 mm 4 mps 769 mmHg 67%

    Day after tomorrow, 19 December, Tuesday

    Time Temperature Precipitation Wind Pressure Humidity
    00:00 0°C° 0 mm 4 mps 769 mmHg 67%
    01:00 0°C° 0 mm 4 mps 769 mmHg 67%
    02:00 -1°C° 0 mm 4 mps 769 mmHg 67%
    03:00 -1°C° 0 mm 4 mps 770 mmHg 68%
    04:00 -1°C° 0 mm 4 mps 770 mmHg 68%
    05:00 -1°C° 0 mm 4 mps 770 mmHg 69%
    06:00 -1°C° 0 mm 4 mps 771 mmHg 69%
    07:00 -1°C° 0 mm 4 mps 771 mmHg 69%
    08:00 0°C° 0 mm 4 mps 772 mmHg 66%
    09:00 +1°C° 0 mm 3 mps 772 mmHg 63%
    10:00 +2°C° 0 mm 3 mps 772 mmHg 60%
    11:00 +3°C° 0 mm 3 mps 772 mmHg 57%
    12:00 +4°C° 0 mm 3 mps 772 mmHg 54%
    13:00 +5°C° 0 mm 3 mps 772 mmHg 50%
    14:00 +4°C° 0 mm 3 mps 772 mmHg 54%
    15:00 +4°C° 0 mm 2 mps 772 mmHg 57%
    16:00 +4°C° 0 mm 2 mps 771 mmHg 61%
    17:00 +2°C° 0 mm 3 mps 772 mmHg 63%
    18:00 +1°C° 0 mm 3 mps 772 mmHg 65%
    19:00 +1°C° 0 mm 3 mps 772 mmHg 67%
    20:00 +1°C° 0 mm 3 mps 772 mmHg 65%
    21:00 +1°C° 0 mm 3 mps 772 mmHg 63%
    22:00 0°C° 0 mm 3 mps 772 mmHg 61%
    23:00 +1°C° 0 mm 3 mps 772 mmHg 59%

    20 December, Wednesday

    Time Temperature Precipitation Wind Pressure Humidity
    00:00 +1°C° 0 mm 3 mps 771 mmHg 57%
    01:00 +2°C° 0 mm 2 mps 771 mmHg 55%
    02:00 +3°C° 0 mm 2 mps 771 mmHg 57%
    03:00 +3°C° 0 mm 2 mps 770 mmHg 59%
    04:00 +3°C° 0 mm 2 mps 770 mmHg 62%
    05:00 +4°C° 0.1 mm 2 mps 770 mmHg 65%
    06:00 +4°C° 0.1 mm 2 mps 770 mmHg 69%
    07:00 +4°C° 0.1 mm 2 mps 770 mmHg 72%
    08:00 +4°C° 0 mm 3 mps 770 mmHg 72%
    09:00 +4°C° 0 mm 3 mps 770 mmHg 72%
    10:00 +5°C° 0 mm 3 mps 770 mmHg 72%
    11:00 +7°C° 0 mm 3 mps 770 mmHg 70%
    12:00 +7°C° 0 mm 3 mps 770 mmHg 68%
    13:00 +7°C° 0 mm 4 mps 770 mmHg 66%
    14:00 +6°C° 0 mm 4 mps 770 mmHg 68%
    15:00 +6°C° 0 mm 4 mps 770 mmHg 71%
    16:00 +5°C° 0 mm 4 mps 770 mmHg 74%
    17:00 +5°C° 0 mm 4 mps 770 mmHg 75%
    18:00 +4°C° 0 mm 4 mps 771 mmHg 77%
    19:00 +3°C° 0 mm 4 mps 771 mmHg 79%
    20:00 +3°C° 0 mm 4 mps 771 mmHg 78%
    21:00 +3°C° 0 mm 4 mps 772 mmHg 78%
    22:00 +3°C° 0 mm 4 mps 772 mmHg 78%
    23:00 +3°C° 0 mm 3 mps 772 mmHg 77%

    21 December, Thursday

    Time Temperature Precipitation Wind Pressure Humidity
    00:00 +3°C° 0 mm 3 mps 772 mmHg 77%
    01:00 +2°C° 0 mm 3 mps 772 mmHg 77%
    02:00 +3°C° 0 mm 3 mps 772 mmHg 77%
    03:00 +3°C° 0 mm 3 mps 771 mmHg 76%
    04:00 +3°C° 0 mm 3 mps 771 mmHg 76%
    05:00 +3°C° 0 mm 3 mps 771 mmHg 77%
    06:00 +3°C° 0 mm 3 mps 771 mmHg 77%
    07:00 +3°C° 0 mm 3 mps 772 mmHg 77%
    08:00 +4°C° 0 mm 3 mps 772 mmHg 76%
    09:00 +6°C° 0 mm 2 mps 772 mmHg 74%
    10:00 +7°C° 0 mm 2 mps 772 mmHg 72%
    11:00 +8°C° 0 mm 2 mps 772 mmHg 72%
    12:00 +9°C° 0 mm 3 mps 771 mmHg 72%
    13:00 +9°C° 0 mm 3 mps 771 mmHg 71%
    14:00 +9°C° 0 mm 3 mps 771 mmHg 75%
    15:00 +9°C° 0 mm 3 mps 771 mmHg 78%
    16:00 +8°C° 0 mm 3 mps 771 mmHg 81%
    17:00 +8°C° 0 mm 3 mps 771 mmHg 81%
    18:00 +8°C° 0 mm 3 mps 771 mmHg 82%
    19:00 +8°C° 0 mm 2 mps 772 mmHg 82%
    20:00 +8°C° 0 mm 2 mps 772 mmHg 82%
    21:00 +8°C° 0 mm 2 mps 772 mmHg 82%
    22:00 +8°C° 0 mm 2 mps 772 mmHg 81%
    23:00 +8°C° 0 mm 2 mps 772 mmHg 81%

    22 December, Friday

    Time Temperature Precipitation Wind Pressure Humidity
    00:00 +8°C° 0 mm 2 mps 771 mmHg 82%
    01:00 +8°C° 0 mm 2 mps 771 mmHg 82%
    02:00 +9°C° 0 mm 1 mps 771 mmHg 82%
    03:00 +9°C° 0 mm 1 mps 770 mmHg 82%
    04:00 +9°C° 0 mm 1 mps 770 mmHg 82%
    05:00 +9°C° 0 mm 1 mps 770 mmHg 82%
    06:00 +9°C° 0 mm 1 mps 769 mmHg 83%
    07:00 +9°C° 0 mm 1 mps 769 mmHg 83%
    08:00 +10°C° 0 mm 1 mps 769 mmHg 83%
    09:00 +10°C° 0 mm 1 mps 769 mmHg 83%
    10:00 +11°C° 0 mm 1 mps 769 mmHg 83%
    11:00 +11°C° 0 mm 1 mps 768 mmHg 82%
    12:00 +11°C° 0 mm 1 mps 768 mmHg 81%
    13:00 +11°C° 0 mm 1 mps 767 mmHg 81%
    14:00 +11°C° 0.4 mm 1 mps 767 mmHg 84%
    15:00 +10°C° 0.4 mm 1 mps 767 mmHg 87%
    16:00 +10°C° 0.4 mm 1 mps 767 mmHg 90%
    17:00 +10°C° 1 mm 1 mps 768 mmHg 91%
    18:00 +8°C° 1 mm 2 mps 768 mmHg 92%
    19:00 +8°C° 1 mm 2 mps 768 mmHg 93%
    20:00 +8°C° 0.5 mm 3 mps 769 mmHg 89%
    21:00 +7°C° 0.5 mm 5 mps 769 mmHg 85%
    22:00 +8°C° 0.5 mm 6 mps 770 mmHg 80%
    23:00 +6°C° 0 mm 7 mps 770 mmHg 74%
    Show more